This is the latest recevied weather packets stored in our database for station/object K6LCM-13. If no packets are shown the sender has not sent any weather packets the latest 10 day(s).
| Time | Temp. | Humidity | Pressure | Rain* | Wind** | Luminosity | Snow |
|---|---|---|---|---|---|---|---|
| 1777870538 | 16.11° C | 63% | 1014.6 hPa | 0 mm | - | - | - |
| 1777869998 | 16.11° C | 65% | 1014.7 hPa | 0 mm | - | - | - |
| 1777869458 | 16.11° C | 64% | 1014.7 hPa | 0 mm | - | - | - |
| 1777868918 | 16.11° C | 65% | 1014.5 hPa | 0 mm | - | - | - |
| 1777868378 | 16.11° C | 66% | 1014.1 hPa | 0 mm | - | - | - |
| 1777867838 | 16.11° C | 66% | 1014.1 hPa | 0 mm | - | - | - |
| 1777867298 | 16.11° C | 68% | 1014.1 hPa | 0 mm | - | - | - |
| 1777866758 | 16.11° C | 72% | 1013.9 hPa | 0 mm | - | - | - |
| 1777866218 | 15.56° C | 71% | 1013.7 hPa | 0 mm | - | - | - |
| 1777865678 | 15.56° C | 78% | 1013.5 hPa | 0 mm | - | - | - |
| 1777865138 | 15.56° C | 81% | 1013.7 hPa | 0 mm | - | - | - |
| 1777864598 | 15.56° C | 81% | 1013.4 hPa | 0 mm | - | - | - |
| 1777863821 | 15.56° C | 81% | 1013.4 hPa | 0 mm | - | - | - |
| 1777863282 | 15.56° C | 81% | 1013.4 hPa | 0 mm | - | - | - |
| 1777862741 | 15.56° C | 81% | 1013.3 hPa | 0 mm | - | - | - |
| 1777862202 | 15.56° C | 81% | 1013.3 hPa | 0 mm | - | - | - |
| 1777861661 | 15.56° C | 81% | 1013.3 hPa | 0 mm | - | - | - |
| 1777861122 | 15.56° C | 81% | 1013.6 hPa | 0 mm | - | - | - |
| 1777860581 | 15.56° C | 81% | 1013.3 hPa | 0 mm | - | - | - |
| 1777860042 | 15.56° C | 81% | 1013.4 hPa | 0 mm | - | - | - |
| 1777859502 | 15.56° C | 80% | 1013.6 hPa | 0 mm | - | - | - |
| 1777858962 | 15.56° C | 78% | 1013.7 hPa | 0 mm | - | - | - |
| 1777858421 | 15.56° C | 78% | 1013.3 hPa | 0 mm | - | - | - |
| 1777857882 | 15.56° C | 78% | 1013 hPa | 0 mm | - | - | - |
| 1777857342 | 15.56° C | 77% | 1013.4 hPa | 0 mm | - | - | - |
* Rain latest hour (hover to see other rain measurements)
** Current wind speed in m/s (hover to see current wind gust speed)